Hourly Weather Chakwal

Today, 16 June, Wednesday

Time Temperature Precipitation Wind Pressure Humidity
00:00 +32°C° 0 mm 1 mps 703 mmHg 34%
01:00 +31°C° 0 mm 1 mps 703 mmHg 34%
02:00 +31°C° 0 mm 1 mps 703 mmHg 34%
03:00 +30°C° 0 mm 1 mps 703 mmHg 36%
04:00 +30°C° 0 mm 1 mps 703 mmHg 38%
05:00 +27°C° 0 mm 0 mps 703 mmHg 37%
06:00 +31°C° 0 mm 1 mps 704 mmHg 35%
07:00 +32°C° 0 mm 2 mps 705 mmHg 32%
08:00 +34°C° 0 mm 3 mps 706 mmHg 29%
09:00 +35°C° 0 mm 4 mps 706 mmHg 29%
10:00 +36°C° 0 mm 4 mps 706 mmHg 28%
11:00 +37°C° 0 mm 4 mps 706 mmHg 28%
12:00 +38°C° 0 mm 4 mps 706 mmHg 26%
13:00 +38°C° 0 mm 3 mps 706 mmHg 25%
14:00 +39°C° 0 mm 2 mps 705 mmHg 23%
15:00 +37°C° 0 mm 4 mps 705 mmHg 30%
16:00 +35°C° 0 mm 6 mps 705 mmHg 37%
17:00 +33°C° 0 mm 8 mps 704 mmHg 44%
18:00 +32°C° 0 mm 7 mps 705 mmHg 45%
19:00 +32°C° 0 mm 5 mps 705 mmHg 46%
20:00 +30°C° 0 mm 4 mps 705 mmHg 46%
21:00 +30°C° 0 mm 4 mps 706 mmHg 46%
22:00 +29°C° 0 mm 4 mps 706 mmHg 46%
23:00 +29°C° 0 mm 4 mps 707 mmHg 45%

Tomorrow, 17 June, Thursday

Time Temperature Precipitation Wind Pressure Humidity
00:00 +28°C° 0 mm 3 mps 706 mmHg 47%
01:00 +28°C° 0 mm 2 mps 706 mmHg 48%
02:00 +28°C° 0 mm 1 mps 706 mmHg 49%
03:00 +28°C° 0 mm 1 mps 706 mmHg 50%
04:00 +28°C° 0 mm 1 mps 706 mmHg 51%
05:00 +25°C° 0 mm 0 mps 707 mmHg 51%
06:00 +27°C° 0 mm 0 mps 707 mmHg 47%
07:00 +30°C° 0 mm 1 mps 708 mmHg 42%
08:00 +31°C° 0 mm 1 mps 708 mmHg 38%
09:00 +33°C° 0 mm 1 mps 708 mmHg 34%
10:00 +35°C° 0 mm 2 mps 708 mmHg 31%
11:00 +37°C° 0 mm 2 mps 708 mmHg 27%
12:00 +38°C° 0 mm 2 mps 707 mmHg 24%
13:00 +39°C° 0 mm 2 mps 707 mmHg 21%
14:00 +40°C° 0 mm 2 mps 707 mmHg 18%
15:00 +40°C° 0 mm 2 mps 706 mmHg 17%
16:00 +40°C° 0 mm 2 mps 706 mmHg 16%
17:00 +40°C° 0 mm 2 mps 706 mmHg 15%
18:00 +39°C° 0 mm 2 mps 706 mmHg 16%
19:00 +39°C° 0 mm 3 mps 706 mmHg 18%
20:00 +38°C° 0 mm 3 mps 706 mmHg 19%
21:00 +36°C° 0 mm 3 mps 706 mmHg 25%
22:00 +35°C° 0 mm 3 mps 707 mmHg 30%
23:00 +33°C° 0 mm 4 mps 707 mmHg 36%

Day after tomorrow, 18 June, Friday

Time Temperature Precipitation Wind Pressure Humidity
00:00 +33°C° 0 mm 3 mps 707 mmHg 36%
01:00 +33°C° 0 mm 3 mps 707 mmHg 36%
02:00 +32°C° 0 mm 2 mps 706 mmHg 35%
03:00 +31°C° 0 mm 2 mps 707 mmHg 36%
04:00 +31°C° 0 mm 1 mps 707 mmHg 36%
05:00 +31°C° 0 mm 1 mps 707 mmHg 36%
06:00 +32°C° 0 mm 1 mps 707 mmHg 32%
07:00 +33°C° 0 mm 1 mps 708 mmHg 29%
08:00 +35°C° 0 mm 1 mps 708 mmHg 25%
09:00 +36°C° 0 mm 1 mps 708 mmHg 23%
10:00 +37°C° 0 mm 1 mps 708 mmHg 21%
11:00 +39°C° 0 mm 1 mps 708 mmHg 19%
12:00 +40°C° 0 mm 1 mps 708 mmHg 18%
13:00 +41°C° 0 mm 1 mps 707 mmHg 17%
14:00 +42°C° 0 mm 2 mps 707 mmHg 16%
15:00 +42°C° 0 mm 2 mps 706 mmHg 15%
16:00 +42°C° 0 mm 2 mps 706 mmHg 15%
17:00 +42°C° 0 mm 2 mps 706 mmHg 14%
18:00 +41°C° 0 mm 2 mps 706 mmHg 16%
19:00 +40°C° 0 mm 2 mps 706 mmHg 18%
20:00 +39°C° 0 mm 3 mps 706 mmHg 19%
21:00 +38°C° 0 mm 3 mps 706 mmHg 22%
22:00 +37°C° 0 mm 3 mps 707 mmHg 24%
23:00 +37°C° 0 mm 3 mps 707 mmHg 26%

19 June, Saturday

Time Temperature Precipitation Wind Pressure Humidity
00:00 +36°C° 0 mm 2 mps 707 mmHg 28%
01:00 +35°C° 0 mm 2 mps 706 mmHg 29%
02:00 +34°C° 0 mm 1 mps 706 mmHg 31%
03:00 +33°C° 0 mm 1 mps 706 mmHg 32%
04:00 +33°C° 0 mm 1 mps 706 mmHg 33%
05:00 +32°C° 0 mm 1 mps 706 mmHg 34%
06:00 +34°C° 0 mm 1 mps 707 mmHg 32%
07:00 +35°C° 0 mm 1 mps 707 mmHg 30%
08:00 +36°C° 0 mm 1 mps 708 mmHg 27%
09:00 +37°C° 0 mm 1 mps 708 mmHg 25%
10:00 +40°C° 0 mm 1 mps 708 mmHg 22%
11:00 +41°C° 0 mm 1 mps 708 mmHg 20%
12:00 +42°C° 0 mm 2 mps 707 mmHg 18%
13:00 +43°C° 0 mm 2 mps 706 mmHg 16%
14:00 +44°C° 0 mm 3 mps 706 mmHg 14%
15:00 +44°C° 0 mm 4 mps 705 mmHg 15%
16:00 +44°C° 0 mm 4 mps 705 mmHg 15%
17:00 +43°C° 0 mm 5 mps 705 mmHg 16%
18:00 +42°C° 0 mm 5 mps 705 mmHg 17%
19:00 +41°C° 0 mm 4 mps 705 mmHg 18%
20:00 +40°C° 0 mm 4 mps 705 mmHg 19%
21:00 +40°C° 0 mm 4 mps 705 mmHg 19%
22:00 +38°C° 0 mm 4 mps 705 mmHg 19%
23:00 +37°C° 0 mm 3 mps 705 mmHg 20%

20 June, Sunday

Time Temperature Precipitation Wind Pressure Humidity
00:00 +37°C° 0 mm 3 mps 705 mmHg 23%
01:00 +36°C° 0 mm 3 mps 705 mmHg 26%
02:00 +36°C° 0 mm 3 mps 705 mmHg 28%
03:00 +35°C° 0 mm 3 mps 705 mmHg 30%
04:00 +35°C° 0 mm 2 mps 705 mmHg 32%
05:00 +33°C° 0 mm 1 mps 706 mmHg 33%
06:00 +35°C° 0 mm 2 mps 706 mmHg 31%
07:00 +37°C° 0 mm 3 mps 707 mmHg 29%
08:00 +38°C° 0 mm 3 mps 707 mmHg 27%
09:00 +39°C° 0 mm 3 mps 707 mmHg 26%
10:00 +41°C° 0 mm 4 mps 707 mmHg 25%
11:00 +42°C° 0 mm 4 mps 707 mmHg 23%
12:00 +40°C° 0.4 mm 6 mps 707 mmHg 29%
13:00 +38°C° 0.4 mm 8 mps 706 mmHg 34%
14:00 +36°C° 0.4 mm 10 mps 705 mmHg 39%
15:00 +35°C° 1.9 mm 8 mps 705 mmHg 37%
16:00 +34°C° 1.9 mm 7 mps 705 mmHg 34%
17:00 +34°C° 1.9 mm 6 mps 705 mmHg 32%
18:00 +33°C° 0 mm 7 mps 705 mmHg 36%
19:00 +32°C° 0 mm 7 mps 706 mmHg 41%
20:00 +31°C° 0 mm 8 mps 706 mmHg 45%
21:00 +30°C° 0.1 mm 6 mps 707 mmHg 42%
22:00 +32°C° 0.1 mm 4 mps 707 mmHg 39%
23:00 +31°C° 0.1 mm 3 mps 707 mmHg 35%

21 June, Monday

Time Temperature Precipitation Wind Pressure Humidity
00:00 +31°C° 0 mm 3 mps 707 mmHg 38%
01:00 +30°C° 0 mm 3 mps 707 mmHg 42%
02:00 +29°C° 0 mm 3 mps 707 mmHg 45%
03:00 +29°C° 0 mm 2 mps 707 mmHg 48%
04:00 +28°C° 0 mm 1 mps 707 mmHg 51%
05:00 +28°C° 0 mm 1 mps 707 mmHg 54%
06:00 +29°C° 0 mm 1 mps 708 mmHg 51%
07:00 +30°C° 0 mm 2 mps 708 mmHg 48%
08:00 +31°C° 0 mm 2 mps 709 mmHg 45%
09:00 +32°C° 0 mm 2 mps 709 mmHg 42%
10:00 +34°C° 0 mm 3 mps 709 mmHg 38%
11:00 +36°C° 0 mm 3 mps 709 mmHg 34%
12:00 +37°C° 0 mm 2 mps 708 mmHg 32%
13:00 +37°C° 0 mm 2 mps 708 mmHg 30%
14:00 +37°C° 0 mm 1 mps 707 mmHg 28%
15:00 +39°C° 0 mm 2 mps 707 mmHg 27%
16:00 +39°C° 0 mm 2 mps 706 mmHg 26%
17:00 +39°C° 0 mm 2 mps 706 mmHg 24%
18:00 +39°C° 0 mm 2 mps 706 mmHg 26%
19:00 +38°C° 0 mm 2 mps 706 mmHg 28%
20:00 +37°C° 0 mm 3 mps 707 mmHg 30%
21:00 +37°C° 0 mm 2 mps 707 mmHg 31%
22:00 +36°C° 0 mm 2 mps 707 mmHg 32%
23:00 +34°C° 0 mm 1 mps 707 mmHg 34%
Show more

We Need Your Consent

Meteoprog and our Service Providers may store and access personal data such as cookies, device identifiers or other similar technologies on your device and process such data to personalise content and ads, as well as provide social media features and to analyse the traffic.

  • Store and/or access information on your device

    Cookies, device identifiers or other information can be stored or accessed on your device for the purposes indicated above.

  • Personalised ads and content, ad and content measurement, audience insights, and products development

    Ads and content can be personalised based on a profile. More data can be added to better personalise ads and content. Ad and content performance can be measured. Insights about the audience who saw the ads and content can be derived. Such data can be used to develop or improve user’s experience, systems and software.

By clicking ‘I Agree’ you will allow the use of indicated cookies, device identifiers, web beacons or other similar technologies. Your settings can be changed in the browser on your device.

For certain purposes, legitimate interests may be relied on, rather than consent. You can read more about this in our Privacy and Cookie Policy.